| time (UTC) | temp F | wind direction | speed MPH | gust MPH | rain 1hr in | rain 24hr in | rain mn in | humidity % | barometer mb |
| 20260507114604 | 55 | 301 | 2.0 | 8.0 | 0.00 | 0.00 | 0.00 | 83 | 1018.0 |
| 20260507113048 | 55 | 301 | 2.0 | 10.0 | 0.00 | 0.00 | 0.00 | 84 | 1018.2 |
| 20260507111547 | 55 | 301 | 4.0 | 9.0 | 0.00 | 0.00 | 0.00 | 81 | 1018.2 |
| 20260507110035 | 57 | 301 | 6.0 | 11.0 | 0.00 | 0.00 | 0.00 | 79 | 1018.3 |
| 20260507104523 | 56 | 301 | 1.0 | 5.0 | 0.00 | 0.00 | 0.00 | 80 | 1018.4 |
| 20260507103025 | 56 | 301 | 2.0 | 8.0 | 0.00 | 0.00 | 0.00 | 78 | 1018.5 |
| 20260507101507 | 56 | 301 | 2.0 | 7.0 | 0.00 | 0.00 | 0.00 | 77 | 1018.5 |
| 20260507100007 | 56 | 300 | 2.0 | 10.0 | 0.00 | 0.00 | 0.00 | 75 | 1018.7 |
| 20260507094559 | 58 | 301 | 1.0 | 12.0 | 0.00 | 0.00 | 0.00 | 73 | 1018.7 |
| 20260507093046 | 57 | 301 | 0.0 | 7.0 | 0.00 | 0.00 | 0.00 | 76 | 1018.7 |
| 20260507091524 | 55 | 301 | 3.0 | 7.0 | 0.00 | 0.00 | 0.00 | 80 | 1018.7 |
| 20260507090013 | 55 | 301 | 2.0 | 6.0 | 0.00 | 0.00 | 0.00 | 79 | 1018.6 |
| 20260507084557 | 54 | 301 | 1.0 | 5.0 | 0.00 | 0.00 | 0.00 | 81 | 1018.4 |
| 20260507083041 | 51 | 301 | 2.0 | 6.0 | 0.00 | 0.00 | 0.00 | 88 | 1018.3 |
| 20260507081535 | 51 | 301 | 1.0 | 10.0 | 0.00 | 0.00 | 0.00 | 91 | 1018.4 |
| 20260507080019 | 51 | 301 | 1.0 | 6.0 | 0.00 | 0.00 | 0.00 | 90 | 1018.4 |
| 20260507074503 | 51 | 301 | 2.0 | 6.0 | 0.00 | 0.00 | 0.00 | 88 | 1018.5 |
| 20260507073052 | 52 | 301 | 2.0 | 6.0 | 0.00 | 0.00 | 0.00 | 86 | 1018.3 |
| 20260507071559 | 52 | 301 | 2.0 | 7.0 | 0.00 | 0.00 | 0.00 | 83 | 1018.3 |
| 20260507070017 | 51 | 301 | 1.0 | 6.0 | 0.00 | 0.00 | 0.00 | 82 | 1018.2 |
| 20260507064600 | 49 | 301 | 1.0 | 6.0 | 0.00 | 0.00 | 0.00 | 85 | 1018.1 |
| 20260507063056 | 48 | 301 | 2.0 | 6.0 | 0.00 | 0.00 | 0.00 | 81 | 1018.1 |
| 20260507061556 | 48 | 301 | 3.0 | 5.0 | 0.00 | 0.00 | 0.00 | 80 | 1017.7 |
| 20260507060047 | 47 | 301 | 1.0 | 5.0 | 0.00 | 0.00 | 0.00 | 81 | 1017.5 |
| 20260507054518 | 47 | 301 | 2.0 | 6.0 | 0.00 | 0.00 | 0.00 | 83 | 1017.4 |
| 20260507053012 | 46 | 301 | 2.0 | 5.0 | 0.00 | 0.00 | 0.00 | 90 | 1017.4 |
| 20260507051503 | 46 | 301 | 2.0 | 5.0 | 0.00 | 0.00 | 0.00 | 95 | 1017.3 |
| 20260507050002 | 45 | 301 | 2.0 | 5.0 | 0.00 | 0.00 | 0.00 | 96 | 1017.2 |
| 20260507044558 | 46 | 301 | 2.0 | 8.0 | 0.00 | 0.00 | 0.00 | 97 | 1017.1 |
| 20260507043050 | 46 | 301 | 3.0 | 6.0 | 0.00 | 0.00 | 0.00 | 96 | 1017.1 |
| 20260507041534 | 45 | 301 | 3.0 | 8.0 | 0.00 | 0.00 | 0.00 | 96 | 1017.2 |
| 20260507040027 | 45 | 301 | 3.0 | 8.0 | 0.00 | 0.00 | 0.00 | 96 | 1017.2 |
| 20260507034530 | 45 | 301 | 4.0 | 8.0 | 0.00 | 0.00 | 0.00 | 95 | 1017.1 |
| 20260507033014 | 46 | 300 | 4.0 | 8.0 | 0.00 | 0.00 | 0.00 | 95 | 1017.1 |
| 20260507031554 | 46 | 301 | 4.0 | 9.0 | 0.00 | 0.00 | 0.00 | 94 | 1017.2 |
| 20260507030037 | 46 | 301 | 3.0 | 8.0 | 0.00 | 0.00 | 0.00 | 92 | 1017.2 |
| 20260507024536 | 47 | 301 | 2.0 | 6.0 | 0.00 | 0.00 | 0.00 | 87 | 1017.1 |
| 20260507023027 | 48 | 301 | 3.0 | 6.0 | 0.00 | 0.00 | 0.00 | 80 | 1017.2 |
| 20260507021516 | 48 | 301 | 2.0 | 5.0 | 0.00 | 0.00 | 0.00 | 84 | 1017.2 |
| 20260507020007 | 48 | 301 | 2.0 | 4.0 | 0.00 | 0.00 | 0.00 | 79 | 1017.2 |
| 20260507014511 | 47 | 301 | 2.0 | 5.0 | 0.00 | 0.00 | 0.00 | 84 | 1017.2 |
| 20260507013054 | 48 | 301 | 2.0 | 5.0 | 0.00 | 0.00 | 0.00 | 77 | 1017.4 |
| 20260507011540 | 48 | 301 | 2.0 | 4.0 | 0.00 | 0.00 | 0.00 | 77 | 1017.3 |
| 20260507010027 | 49 | 301 | 1.0 | 5.0 | 0.00 | 0.00 | 0.00 | 77 | 1017.3 |
| 20260507004516 | 48 | 301 | 2.0 | 5.0 | 0.00 | 0.00 | 0.00 | 77 | 1017.7 |
| 20260507003006 | 48 | 301 | 2.0 | 5.0 | 0.00 | 0.00 | 0.00 | 79 | 1017.7 |
| 20260507001552 | 48 | 301 | 2.0 | 5.0 | 0.00 | 0.00 | 0.00 | 79 | 1017.8 |
| 20260507000032 | 47 | 301 | 3.0 | 6.0 | 0.00 | 0.00 | 0.00 | 88 | 1017.8 |
| 20260506234519 | 46 | 301 | 2.0 | 5.0 | 0.00 | 0.00 | 0.00 | 91 | 1017.8 |
| 20260506233009 | 47 | 301 | 2.0 | 5.0 | 0.00 | 0.00 | 0.00 | 94 | 1018.0 |
| 20260506231602 | 48 | 301 | 5.0 | 8.0 | 0.00 | 0.00 | 0.00 | 92 | 1017.9 |
| 20260506231501 | 48 | 301 | 4.0 | 8.0 | 0.00 | 0.00 | 0.00 | 92 | 1017.9 |
| 20260506230050 | 47 | 301 | 3.0 | 8.0 | 0.00 | 0.01 | 0.00 | 87 | 1017.9 |
| 20260506224538 | 47 | 301 | 4.0 | 7.0 | 0.00 | 0.01 | 0.00 | 87 | 1017.8 |
| 20260506223026 | 47 | 301 | 3.0 | 9.0 | 0.00 | 0.01 | 0.00 | 90 | 1017.8 |
| 20260506221517 | 47 | 301 | 3.0 | 9.0 | 0.00 | 0.01 | 0.00 | 87 | 1017.8 |
| 20260506220100 | 47 | 301 | 2.0 | 8.0 | 0.00 | 0.01 | 0.00 | 86 | 1017.7 |
| 20260506220020 | 47 | 301 | 2.0 | 8.0 | 0.00 | 0.01 | 0.01 | 86 | 1017.8 |
| 20260506214601 | 47 | 301 | 3.0 | 7.0 | 0.00 | 0.01 | 0.01 | 86 | 1017.7 |
| 20260506213041 | 47 | 301 | 2.0 | 7.0 | 0.00 | 0.01 | 0.01 | 88 | 1017.6 |
| 20260506211529 | 48 | 301 | 3.0 | 7.0 | 0.00 | 0.01 | 0.01 | 91 | 1017.6 |
| 20260506210016 | 48 | 301 | 3.0 | 7.0 | 0.00 | 0.01 | 0.01 | 91 | 1017.5 |
| 20260506204509 | 48 | 301 | 5.0 | 10.0 | 0.00 | 0.01 | 0.01 | 90 | 1017.5 |
| 20260506203057 | 48 | 301 | 3.0 | 8.0 | 0.00 | 0.01 | 0.01 | 92 | 1017.3 |
| 20260506201545 | 48 | 301 | 1.0 | 5.0 | 0.00 | 0.01 | 0.01 | 92 | 1017.2 |
| 20260506200023 | 48 | 301 | 3.0 | 6.0 | 0.00 | 0.01 | 0.01 | 90 | 1017.0 |
| 20260506194522 | 49 | 301 | 0.0 | 4.0 | 0.00 | 0.01 | 0.01 | 86 | 1016.8 |
| 20260506193017 | 49 | 301 | 1.0 | 8.0 | 0.00 | 0.01 | 0.01 | 84 | 1016.6 |
| 20260506191511 | 50 | 301 | 2.0 | 8.0 | 0.00 | 0.01 | 0.01 | 84 | 1016.4 |
| 20260506190057 | 51 | 301 | 2.0 | 9.0 | 0.00 | 0.01 | 0.01 | 82 | 1016.4 |
| 20260506184550 | 52 | 301 | 2.0 | 10.0 | 0.00 | 0.01 | 0.01 | 80 | 1016.3 |
| 20260506183038 | 53 | 301 | 4.0 | 9.0 | 0.00 | 0.01 | 0.01 | 78 | 1016.1 |
| 20260506181525 | 53 | 301 | 4.0 | 10.0 | 0.00 | 0.01 | 0.01 | 79 | 1015.8 |
| 20260506180026 | 54 | 301 | 2.0 | 9.0 | 0.00 | 0.01 | 0.01 | 77 | 1015.8 |
| 20260506174514 | 56 | 301 | 2.0 | 6.0 | 0.00 | 0.01 | 0.01 | 72 | 1015.8 |
| 20260506173000 | 56 | 301 | 3.0 | 8.0 | 0.00 | 0.01 | 0.01 | 66 | 1015.8 |
| 20260506171551 | 57 | 301 | 3.0 | 7.0 | 0.00 | 0.01 | 0.01 | 63 | 1015.6 |
| 20260506170041 | 58 | 301 | 4.0 | 8.0 | 0.00 | 0.01 | 0.01 | 61 | 1015.6 |
| 20260506164533 | 57 | 301 | 3.0 | 8.0 | 0.00 | 0.01 | 0.01 | 63 | 1015.6 |
| 20260506163019 | 58 | 301 | 3.0 | 10.0 | 0.00 | 0.01 | 0.01 | 63 | 1015.6 |
| 20260506161509 | 57 | 301 | 4.0 | 9.0 | 0.00 | 0.01 | 0.01 | 62 | 1015.6 |
| 20260506160057 | 60 | 301 | 3.0 | 10.0 | 0.00 | 0.18 | 0.01 | 61 | 1015.6 |
| 20260506154548 | 59 | 301 | 3.0 | 9.0 | 0.00 | 0.18 | 0.01 | 62 | 1015.6 |
| 20260506153027 | 59 | 301 | 4.0 | 12.0 | 0.00 | 0.18 | 0.01 | 59 | 1015.5 |
| 20260506151517 | 59 | 301 | 3.0 | 9.0 | 0.00 | 0.18 | 0.01 | 61 | 1015.6 |
| 20260506150009 | 58 | 301 | 4.0 | 10.0 | 0.00 | 0.33 | 0.01 | 62 | 1015.8 |
| 20260506144507 | 59 | 301 | 3.0 | 10.0 | 0.00 | 0.33 | 0.01 | 62 | 1015.8 |
| 20260506143047 | 58 | 301 | 4.0 | 10.0 | 0.00 | 0.33 | 0.01 | 63 | 1016.0 |
| 20260506141537 | 57 | 301 | 4.0 | 12.0 | 0.00 | 0.33 | 0.01 | 61 | 1016.1 |
| 20260506140024 | 59 | 301 | 4.0 | 12.0 | 0.00 | 0.33 | 0.01 | 62 | 1016.2 |
| 20260506134515 | 59 | 300 | 5.0 | 14.0 | 0.00 | 0.33 | 0.01 | 58 | 1016.3 |
| 20260506133053 | 59 | 301 | 3.0 | 11.0 | 0.00 | 0.33 | 0.01 | 60 | 1016.2 |
| 20260506131527 | 58 | 300 | 4.0 | 11.0 | 0.00 | 0.33 | 0.01 | 59 | 1016.4 |
| 20260506130020 | 58 | 300 | 1.0 | 8.0 | 0.00 | 0.33 | 0.01 | 64 | 1016.5 |
| 20260506124508 | 58 | 301 | 3.0 | 13.0 | 0.00 | 0.33 | 0.01 | 65 | 1016.4 |
| 20260506123057 | 57 | 301 | 6.0 | 12.0 | 0.00 | 0.33 | 0.01 | 62 | 1016.5 |
| 20260506121539 | 56 | 301 | 2.0 | 12.0 | 0.00 | 0.33 | 0.01 | 67 | 1016.5 |
| 20260506120028 | 55 | 300 | 5.0 | 13.0 | 0.00 | 0.33 | 0.01 | 68 | 1016.5 |